Lid_Strength_Index
8 11 13 10 9 8 9 10 11 9 7 9 9 9 7 6 6 6 5 5 5 6 4 3 2 1 1 1 1 1 1 0 0 1 1 1 1 0 -0 -1 -1 -1 -1 -1
10 13 9 8 8 9 10 11 11 9 7 9 9 9 7 6 7 6 6 5 5 4 5 4 2 2 2 2 1 1 1 1 0 0 0 0 0 0 -0 -1 -1 -1 -1 -1
12 10 7 9 10 11 11 12 11 11 9 8 10 11 9 7 6 6 5 5 4 4 4 4 4 2 2 2 1 1 1 1 0 0 0 0 0 0 1 0 0 -0 -1 -1
10 7 9 10 12 11 14 9 10 11 13 15 9 16 10 8 7 8 6 5 5 4 3 3 3 3 2 2 1 1 1 1 1 0 1 1 2 2 1 1 0 -0 -1 -1
11 10 10 12 10 9 12 9 10 11 13 13 12 16 12 8 9 8 7 5 5 4 4 3 3 3 3 1 1 1 1 1 1 1 1 1 2 1 1 1 1 0 -0 -1
9 7 8 9 8 8 8 11 11 12 14 19 14 14 13 10 9 7 6 5 5 5 4 3 3 3 3 2 1 1 1 1 1 1 1 1 2 2 2 1 1 1 0 0
10 10 8 8 11 9 10 13 19 20 20 20 11 13 12 8 7 7 6 5 5 5 5 3 4 3 3 2 2 2 2 2 1 1 1 1 1 1 1 1 1 1 1 1
14 16 11 8 10 12 12 13 17 21 20 17 12 17 12 7 6 5 5 5 4 5 5 4 4 3 3 3 2 2 2 2 1 1 1 1 1 1 1 1 1 1 1 1
14 13 8 8 8 9 12 15 10 15 15 18 14 12 9 7 7 7 6 5 5 4 5 5 4 3 3 3 2 3 2 2 1 1 1 1 1 1 1 1 1 1 0 0
9 14 8 8 7 8 10 9 15 15 21 21 15 14 12 9 8 7 7 6 5 4 5 5 5 5 4 3 2 2 2 2 1 1 1 1 1 1 1 1 1 1 1 0
8 10 12 8 10 12 11 13 13 14 15 18 19 14 8 8 7 7 7 6 5 5 4 4 5 4 4 4 4 3 3 3 2 1 1 1 1 1 1 1 1 1 1 0
8 10 14 12 8 7 8 11 11 17 17 16 16 16 7 7 6 6 6 5 5 4 4 4 4 4 5 6 6 5 4 4 4 2 1 1 1 1 1 1 1 1 1 0
8 12 16 14 10 9 10 9 10 10 12 16 18 15 7 7 7 6 6 6 5 5 5 4 5 5 5 5 5 6 6 5 4 3 2 2 2 2 2 1 1 1 1 1
7 11 13 15 12 10 11 10 10 11 16 16 15 13 10 8 7 6 6 6 6 6 5 5 6 6 5 6 6 6 7 6 5 4 3 2 2 2 1 1 1 1 1 1
8 14 11 11 10 10 11 11 10 11 11 15 13 12 9 8 7 7 6 6 6 6 5 4 5 5 6 5 6 7 7 6 5 4 3 3 2 2 2 2 2 2 2 2
8 13 11 14 11 11 13 11 10 10 11 11 11 12 7 7 6 7 7 7 6 6 6 6 5 6 6 7 6 7 7 7 5 5 4 4 3 3 3 2 3 4 5 5
10 12 14 16 11 12 15 12 11 10 10 10 12 9 7 8 7 7 7 7 6 6 6 7 6 6 6 6 7 7 7 7 6 6 5 5 4 5 6 8 8 9 8 8
10 12 13 15 14 18 12 9 9 11 10 9 9 9 8 9 8 6 5 6 6 6 6 6 5 5 5 7 7 7 8 8 8 7 7 8 9 9 10 10 10 10 10 10
7 11 14 16 16 14 12 11 11 12 12 9 9 8 8 7 7 8 7 7 6 5 5 5 5 4 3 5 7 8 9 9 9 9 9 10 10 11 11 12 11 11 11 12
9 9 12 15 17 19 13 9 8 8 14 9 8 8 8 8 12 12 6 4 4 3 3 3 4 4 4 4 7 9 10 10 10 9 9 10 10 11 11 11 12 12 12 13
14 13 15 14 15 14 10 8 7 14 14 8 7 7 7 9 8 7 6 6 5 4 4 4 5 5 4 6 10 11 10 10 9 10 10 11 11 11 11 12 12 13 14 14
14 15 15 14 16 18 8 9 12 9 7 7 7 6 7 6 6 6 6 6 6 6 6 5 6 6 6 7 10 10 10 8 10 10 11 11 12 13 13 14 14 15 14 14
14 12 12 12 13 8 7 7 6 9 10 12 13 11 10 10 9 8 8 8 7 6 6 6 7 7 6 7 10 9 8 9 11 12 12 13 13 14 14 14 15 15 14 14
10 9 11 11 10 9 8 8 13 13 15 15 14 13 13 13 12 12 11 11 10 9 8 7 7 7 8 7 11 9 8 11 12 12 13 13 13 14 14 14 14 14 14 14
16 13 14 12 10 16 10 16 15 17 17 16 15 15 15 14 15 14 14 13 12 11 9 9 9 8 8 8 9 10 11 12 13 12 13 13 13 13 14 13 13 13 13 12
21 23 20 16 20 21 20 18 18 18 17 18 18 18 16 16 16 16 16 13 12 12 11 10 11 9 9 8 9 11 12 12 13 13 14 13 13 13 13 13 13 12 13 13